Location: Poughquag
(41.6090°N, 73.6820°W)
Time: 12:44:34
(UTC-04:00)

Transit 2A - Pass Details

Date: 31 May 2020
Orbit: 592 x 967 km, 66.7° (Epoch: 06 July)

Event Time Altitude Azimuth Distance (km) Brightness Sun altitude
Rises 12:57:31 0° 175° (S) 2,971 9.3 70.4°
Reaches altitude 10° 13:00:01 10° 163° (SSE) 2,117 8.7 70.4°
Maximum altitude 13:03:58 26° 107° (ESE) 1,413 7.8 70.3°
Drops below altitude 10° 13:08:17 10° 52° (NE) 2,328 8.5 70.2°
Sets 13:11:09 0° 41° (NE) 3,334 9.1 70.1°
